Showing default

QIANFAN-66, 62796

Orbit data source: Space-Track

QIANFAN-66, 62796 is a Chinese payload satellite in LEO that was launched on Thu, 23 Jan 2025 UTC via a CHANG ZHENG 6A launch vehicle from the Taiyaun Space Center, China (TSC). Payload-class satellites include a variety of spacecraft equipped with specific instruments for various scientific and technological missions. These include communications satellites like Starlink; space stations such as the ISS; scientific satellites like the Hubble; Earth observation satellites from companies like Planet Labs, Umbra, and HawkEye 360; GPS; miniature CubeSats for education and research; and military/defense satellites.

Loading next visibility...
Identifier
62796, 2025-016M
Orbit
LEO
Country
Flag of CNCN / PRC
Related business
Manufacturer
SECM
Mission
Operational Commercial Communications
Bus & Motor
QIANFAN, Unknown motor
Mass
267 kg wet, ~267 kg dry
Launch date (UTC)
2025-01-23 (11 months ago)
Launch vehicle
CHANG ZHENG 6A
Launch site
Taiyaun Space Center, China (TSC)
Object type
Payload
Rocket body
Debris
Shape & HBR
Box + 1 Pan, 1.3 m
Radar Cross Section
13.200 m², Large (>1 m²)

Expand to show TLE details & history
Last TLE update: 9 hours ago

TLE from 9 hours ago
0 QIANFAN-66
1 62796U 25016M   25352.53632689  .00000143  00000-0  20298-3 0  9995
2 62796  88.9785 102.4315 0013653 326.1596  33.8683 13.50978752 48070
Epoch: 2025-12-18T12:52Z
TLE epoch observation values (Epoch: 2025-12-18T12:52:18.643Z)
Latitude
0.00002°
Longitude
-178.0366°
Altitude
1,063.173 km
Speed
7.324 km/s
True Right ascension
06h 49m 43s
True Declination
0° 00' 00"
Sunlit
Object was in full shadow at epoch
Visualization orbit readout
Latitude
Unknown
Longitude
Unknown
Altitude
Unknown
Speed
Unknown
Apparent Right ascension
Unknown
Apparent Declination
Unknown
Sunlit
N/A
Visualization observer readout
Local Sidereal Time
21:00:23
Azimuth
Unknown
Elevation
Unknown
Doppler factor
Unknown
Orbital elements
Apogee altitude
1,075.874 km
Perigee altitude
1,055.548 km
Semi-major axis
7,443.848 km
Eccentricity
0.00137
Inclination
88.9785°
RAAN
102.4315°
Arg. of periapsis
326.1596°
True anomaly
33.95561°
Mean anomaly
33.8683°
Eccentric anomaly
33.91194°
Mean motion
3.37946 °/min
Orbital period
106.53 mins
BSTAR
0.00020298
Loading maneuver chart data...
Computing Atmospheric mass density...
Loading historical data...
Loading historical data...
Loading historical data...
Loading historical data...
Loading historical data...
Loading historical data...
Loading historical data...

Documentation

Showing up to 5 results
|